Vorticity
22 1 25 -13 25 3 -28 8 25 15 1 15 15 10 4 7 3 5 8 8 13 8 7 7 9 10 13 4 9 8 4 -0 -8 14 17 31 -19 -18 34 -9 17 23 -8 11
-34 8 5 26 18 23 9 4 -27 21 37 11 6 6 18 19 20 28 17 13 9 8 7 6 5 9 9 9 -5 8 11 18 15 -3 -4 17 16 20 26 14 9 26 -31 15
8 0 3 -3 7 9 42 19 12 8 -26 3 28 20 6 12 16 12 9 8 8 9 8 8 6 11 7 2 -1 -0 3 11 10 18 8 -14 7 6 19 23 20 15 4 17
38 16 16 12 -9 14 -2 -14 23 16 17 -2 -38 -4 6 -1 10 3 1 5 4 4 9 9 4 1 3 8 9 9 5 2 7 8 12 17 16 7 -0 -11 -0 21 23 24
30 38 18 17 33 5 -19 10 0 34 48 40 8 4 -1 -0 12 13 9 7 6 9 6 3 9 7 9 10 11 7 -0 7 3 2 3 5 8 7 13 13 16 11 -4 -8
5 35 34 38 16 5 36 8 -12 -1 -2 -5 -47 38 30 6 3 8 11 11 8 10 7 5 1 6 10 7 3 1 11 5 1 7 9 4 4 7 5 5 3 8 13 17
12 9 17 27 33 24 14 22 16 16 2 -8 24 0 5 22 20 3 10 11 4 22 -6 8 0 11 12 6 7 13 -4 2 14 12 10 6 5 9 8 6 6 7 5 6
10 18 11 15 25 24 22 38 20 11 17 10 -1 -8 5 4 11 24 26 -6 20 3 21 1 4 6 8 6 12 0 10 7 12 3 2 5 10 4 3 2 3 5 7 7
3 14 12 11 14 27 28 31 33 43 35 20 28 27 25 18 -5 -13 4 33 11 0 -5 17 6 -14 -17 36 -5 12 14 10 17 -8 -16 0 6 3 -4 7 2 11 5 6
-0 18 8 5 13 8 14 21 32 21 35 44 36 23 12 12 16 13 9 6 21 9 5 17 7 12 12 -2 -7 12 3 28 6 -21 9 12 20 2 5 14 12 10 10 5
14 16 4 6 5 8 7 7 10 15 16 21 28 19 29 24 25 14 9 10 15 18 6 25 14 11 10 13 32 4 17 7 2 4 5 -9 4 6 8 6 7 -1 3 7
12 11 15 19 18 4 6 10 8 7 6 9 10 24 27 4 20 15 19 19 24 26 12 11 15 13 8 16 13 10 13 -0 -1 5 10 9 -2 -4 8 9 7 -1 4 -1
7 7 8 10 5 14 18 8 5 7 9 6 8 8 9 12 30 18 -6 7 16 20 7 13 19 12 -0 23 19 6 4 -0 5 22 18 23 24 21 17 15 15 6 8 9
8 5 13 3 6 10 14 17 17 17 14 11 13 11 9 10 13 14 14 22 21 7 -6 4 13 14 6 -2 33 -2 5 16 12 0 -8 2 -4 -1 3 11 7 7 9 11
24 4 8 5 16 14 7 6 8 9 10 19 16 12 15 17 16 15 16 19 15 9 19 20 15 19 29 14 5 15 0 0 0 12 8 12 5 6 12 5 7 11 14 6
12 5 -1 13 7 7 9 9 10 9 10 12 12 14 11 13 14 14 15 17 21 23 24 21 12 9 16 23 33 31 37 22 -1 -10 10 -9 3 5 1 15 11 3 9 5
7 12 12 5 9 12 13 12 16 20 14 15 14 11 9 6 5 9 13 12 15 21 26 25 27 29 26 22 13 6 1 4 20 24 20 14 19 5 6 12 8 16 6 6
14 12 14 16 17 13 14 18 15 17 15 17 11 16 9 7 4 12 18 17 11 21 24 28 31 31 30 28 28 26 21 17 23 22 16 18 24 20 17 16 15 22 15 14
11 10 10 11 13 10 13 14 13 15 22 22 15 12 13 16 7 14 13 15 9 20 17 15 13 12 13 17 18 23 30 38 40 42 40 28 1 -2 -2 16 10 16 9 15
18 12 11 12 11 11 9 7 10 12 12 12 13 12 13 9 10 14 7 16 7 20 12 12 13 11 13 15 14 14 13 14 15 17 22 31 40 33 31 22 20 13 -2 12
13 16 18 14 12 10 9 9 9 10 10 10 11 12 15 15 17 15 16 11 13 11 15 12 10 8 11 11 14 15 15 14 13 14 17 18 13 14 44 37 32 18 15 15
13 12 13 14 14 13 12 12 11 9 9 9 11 12 10 11 15 14 19 10 13 12 11 11 11 10 10 9 12 13 12 14 16 19 25 24 26 27 20 15 31 45 27 17
11 12 13 12 12 13 13 13 13 12 13 13 11 11 12 10 10 13 16 13 14 17 11 12 11 7 8 10 4 12 17 18 17 17 22 17 21 24 27 26 25 27 42 58
12 11 11 11 12 13 13 12 12 12 13 13 14 14 13 11 11 11 12 14 14 12 15 14 12 10 9 8 8 6 19 17 16 19 20 20 18 20 19 19 21 26 26 17
11 11 10 9 9 9 10 11 12 13 14 14 14 13 13 13 12 11 10 10 13 16 14 15 13 13 10 9 10 4 16 19 17 17 20 23 21 16 14 15 15 19 19 26
8 9 10 10 10 8 8 8 9 9 8 8 10 12 14 14 14 14 14 12 11 11 13 15 13 13 11 10 9 6 9 19 19 18 19 19 20 16 12 12 13 11 12 11
12 11 10 10 9 9 8 8 7 7 6 6 8 9 9 9 12 14 16 16 14 12 12 13 15 13 12 11 9 8 5 15 17 18 20 18 16 17 17 15 14 14 14 15
Height
5457 5461 5464 5469 5476 5486 5495 5498 5506 5508 5517 5522 5528 5534 5542 5549 5556 5564 5571 5577 5582 5587 5592 5597 5602 5607 5611 5614 5617 5620 5622 5623 5623 5627 5631 5634 5637 5640 5645 5650 5654 5658 5665 5669
5443 5446 5451 5456 5465 5471 5479 5487 5492 5494 5503 5509 5516 5522 5530 5537 5544 5551 5558 5564 5570 5576 5581 5586 5591 5597 5602 5606 5610 5612 5614 5616 5618 5618 5621 5626 5629 5632 5636 5638 5643 5650 5653 5658
5427 5431 5438 5446 5452 5458 5460 5470 5478 5485 5492 5496 5504 5509 5517 5525 5531 5539 5546 5552 5559 5565 5570 5575 5581 5586 5591 5596 5601 5604 5606 5608 5610 5611 5613 5616 5621 5625 5629 5633 5636 5638 5644 5647
5418 5420 5427 5432 5437 5443 5449 5454 5460 5467 5476 5485 5492 5498 5505 5513 5520 5526 5533 5541 5547 5554 5559 5565 5570 5575 5580 5585 5589 5594 5598 5601 5603 5605 5606 5607 5610 5614 5619 5623 5627 5631 5636 5640
5412 5412 5412 5419 5424 5430 5436 5442 5446 5455 5463 5472 5479 5484 5492 5498 5504 5512 5519 5526 5534 5542 5548 5554 5559 5563 5569 5573 5578 5582 5587 5591 5595 5598 5600 5602 5605 5607 5610 5613 5617 5622 5625 5629
5406 5406 5407 5411 5414 5417 5419 5430 5437 5443 5449 5456 5464 5469 5475 5484 5490 5497 5504 5512 5519 5527 5536 5542 5547 5552 5557 5561 5566 5571 5576 5581 5585 5589 5592 5595 5597 5599 5601 5603 5606 5610 5615 5617
5401 5402 5401 5402 5404 5403 5418 5427 5426 5431 5436 5442 5449 5457 5465 5471 5478 5484 5492 5498 5505 5513 5521 5529 5535 5538 5543 5549 5553 5559 5563 5567 5572 5576 5581 5584 5588 5592 5594 5597 5600 5603 5605 5608
5398 5397 5399 5398 5398 5403 5402 5405 5413 5419 5424 5431 5437 5445 5453 5459 5465 5471 5478 5483 5490 5497 5505 5513 5518 5522 5528 5534 5540 5545 5550 5555 5559 5563 5567 5572 5575 5579 5583 5586 5590 5593 5596 5599
5395 5394 5394 5394 5394 5394 5395 5397 5401 5406 5413 5421 5427 5434 5440 5447 5452 5457 5462 5467 5474 5482 5489 5496 5502 5506 5512 5519 5523 5530 5535 5540 5546 5550 5556 5559 5563 5567 5571 5574 5578 5582 5585 5587
5389 5389 5389 5390 5391 5392 5393 5394 5396 5399 5403 5408 5414 5421 5426 5432 5438 5443 5448 5454 5459 5467 5473 5481 5487 5492 5498 5503 5508 5515 5520 5525 5530 5536 5541 5545 5550 5555 5559 5562 5566 5570 5573 5576
5382 5384 5385 5386 5387 5388 5389 5391 5392 5394 5396 5400 5404 5408 5413 5418 5424 5429 5434 5440 5444 5451 5458 5464 5470 5476 5482 5488 5494 5498 5506 5512 5516 5521 5526 5530 5535 5540 5545 5550 5554 5558 5561 5565
5377 5379 5380 5381 5382 5383 5384 5385 5388 5389 5391 5394 5397 5400 5403 5407 5412 5416 5421 5425 5430 5436 5440 5447 5454 5460 5467 5473 5477 5483 5490 5496 5502 5505 5510 5514 5519 5525 5531 5536 5541 5544 5548 5552
5372 5374 5376 5377 5377 5378 5379 5380 5381 5382 5385 5388 5389 5392 5395 5398 5401 5405 5409 5412 5416 5421 5426 5430 5436 5444 5450 5456 5461 5466 5472 5479 5485 5490 5495 5499 5504 5509 5514 5520 5525 5530 5535 5538
5368 5370 5371 5373 5373 5373 5374 5375 5375 5376 5377 5379 5381 5383 5386 5388 5391 5394 5397 5399 5402 5406 5410 5413 5418 5425 5433 5439 5444 5450 5454 5460 5467 5473 5478 5482 5487 5492 5498 5504 5509 5514 5519 5524
5363 5365 5367 5368 5368 5369 5369 5369 5370 5371 5371 5372 5373 5375 5377 5378 5380 5382 5384 5387 5390 5393 5395 5399 5404 5409 5413 5420 5427 5433 5437 5443 5448 5454 5459 5464 5469 5475 5479 5486 5493 5498 5503 5507
5359 5361 5362 5362 5363 5363 5363 5363 5363 5364 5365 5365 5366 5367 5369 5370 5372 5373 5374 5376 5377 5378 5381 5385 5390 5395 5399 5404 5410 5415 5420 5425 5431 5435 5440 5445 5451 5457 5462 5468 5473 5479 5484 5490
5355 5356 5356 5357 5357 5357 5357 5357 5356 5356 5357 5358 5359 5360 5362 5363 5364 5365 5366 5367 5367 5368 5369 5372 5374 5378 5382 5388 5393 5397 5402 5405 5410 5416 5421 5425 5430 5436 5443 5450 5456 5461 5466 5470
5350 5350 5351 5351 5351 5351 5351 5350 5350 5350 5350 5351 5353 5354 5355 5356 5358 5358 5358 5358 5358 5359 5359 5361 5363 5366 5369 5372 5375 5378 5382 5385 5390 5396 5401 5406 5411 5416 5422 5429 5436 5443 5446 5451
5344 5344 5344 5345 5345 5345 5345 5345 5345 5344 5344 5345 5347 5348 5349 5350 5351 5352 5352 5352 5353 5353 5353 5354 5355 5357 5360 5362 5363 5364 5365 5368 5371 5374 5379 5385 5390 5396 5402 5408 5414 5421 5427 5432
5338 5339 5339 5339 5339 5340 5340 5340 5340 5340 5340 5341 5341 5342 5343 5344 5345 5345 5346 5346 5347 5347 5348 5349 5351 5352 5353 5354 5355 5355 5356 5357 5359 5360 5362 5364 5366 5370 5377 5384 5392 5399 5406 5412
5334 5333 5333 5333 5334 5334 5335 5335 5335 5336 5336 5336 5337 5337 5338 5338 5338 5339 5340 5340 5341 5342 5342 5343 5345 5346 5346 5347 5348 5349 5349 5350 5351 5351 5351 5353 5355 5357 5359 5363 5370 5377 5383 5390
5329 5329 5328 5328 5328 5329 5329 5329 5330 5330 5331 5331 5332 5332 5333 5333 5333 5333 5333 5334 5335 5335 5336 5337 5339 5340 5341 5341 5342 5341 5341 5341 5340 5339 5339 5340 5341 5344 5347 5350 5353 5358 5364 5372
5324 5324 5324 5323 5323 5323 5323 5323 5324 5324 5324 5325 5326 5326 5327 5327 5327 5327 5328 5328 5329 5330 5331 5332 5333 5334 5335 5336 5336 5335 5334 5333 5332 5331 5331 5331 5332 5334 5337 5340 5342 5345 5349 5355
5320 5319 5318 5318 5318 5318 5318 5318 5318 5318 5318 5318 5319 5319 5320 5321 5321 5322 5322 5323 5323 5324 5325 5326 5327 5328 5329 5330 5331 5330 5328 5327 5326 5325 5325 5325 5326 5328 5331 5334 5337 5339 5342 5347
5314 5313 5313 5313 5313 5312 5312 5312 5312 5312 5312 5313 5313 5313 5314 5314 5315 5316 5317 5317 5317 5318 5319 5320 5321 5322 5324 5325 5326 5325 5324 5322 5321 5320 5320 5320 5322 5324 5327 5330 5333 5336 5339 5343
5307 5307 5306 5306 5306 5306 5306 5306 5306 5306 5307 5307 5308 5308 5308 5309 5309 5310 5310 5311 5312 5312 5313 5314 5315 5317 5319 5320 5320 5320 5320 5318 5317 5317 5316 5317 5318 5320 5323 5326 5329 5332 5335 5339
5299 5299 5298 5298 5298 5298 5298 5298 5299 5299 5300 5301 5301 5302 5303 5303 5304 5304 5305 5305 5306 5307 5308 5309 5310 5311 5313 5315 5316 5316 5316 5315 5314 5314 5314 5315 5316 5318 5320 5322 5325 5328 5332 5335